Regional Weather Roundup
Issued by NWS

Home | Current Version | Previous Version | Text Only | Print | Product List | Glossary On
Versions: 1 2 3 4 5 6 7 8 9 10 11 12 13 14 15 16 17 18 19 20 21 22 23 24 25 26 27 28 29 30 31 32 33 34 35 36 37 38 39 40 41 42 43 44 45 46 47 48 49 50
000
ASUS43 KLSX 101607
RWRMO

WEATHER SUMMARY FOR MISSOURI
NATIONAL WEATHER SERVICE SPRINGFIELD MO
1000 AM CST SAT DEC 10 2016

NOTE: "FAIR" INDICATES FEW OR NO CLOUDS BELOW 12,000 FEET WITH NO
       SIGNIFICANT WEATHER AND/OR OBSTRUCTIONS TO VISIBILITY.
       CURRENT SKY AND/OR WEATHER CONDITIONS ARE NOT AVAILABLE FOR
       CHILLICOTHE AND FARMINGTON.

MOZ001>031-035>038-043-044-053-054-101700-
...NORTHERN AND WESTERN MISSOURI...

CITY           SKY/WX    TMP DP  RH WIND       PRES   REMARKS
KANSAS CTY INT CLOUDY    29  15  56 SE12      30.39F WCI  19
KANSAS C DTWN  CLOUDY    31  17  56 SE6       30.41F WCI  25
LEE`S SUMMIT   CLOUDY    30  18  60 SE10      30.40F WCI  21
ST JOSEPH      CLOUDY    28  15  58 SE10      30.40F WCI  19
CHILLICOTHE      N/A     28  14  55 SE9       30.45F WCI  19
KIRKSVILLE     CLOUDY    26  13  57 SE9       30.46F WCI  17

$$
MOZ066>068-077>081-088>096-101>105-101700-
...SOUTHWEST MISSOURI...

CITY           SKY/WX    TMP DP  RH WIND       PRES   REMARKS
SPRINGFIELD    CLOUDY    32  17  54 SE10      30.42S WCI  24
JOPLIN         CLOUDY    37  17  44 S8        30.42F
BRANSON        PTSUNNY   32  19  59 SE9       30.45F WCI  24

$$
MOZ032>034-039>042-045>050-055>058-069>072-101700-
...CENTRAL MISSOURI...

CITY           SKY/WX    TMP DP  RH WIND       PRES   REMARKS
COLUMBIA       CLOUDY    28  14  55 SE9       30.47F WCI  19
JEFFERSON CITY CLOUDY    29  15  56 E7        30.50F WCI  22
ROLLA          CLOUDY    27  15  61 SE7       30.46F WCI  19
SEDALIA        CLOUDY    31  16  54 SE9       30.45F WCI  23
WHITEMAN AFB   CLOUDY    31  18  58 S7        30.42S WCI  24
WARRENSBURG    CLOUDY    32  19  59 SE8       30.43F WCI  25
OSAGE BEACH    CLOUDY    29  17  61 SE5       30.48F WCI  24

$$
MOZ051-052-059>065-101700-
...EAST CENTRAL MISSOURI...

CITY           SKY/WX    TMP DP  RH WIND       PRES   REMARKS
ST LOUIS INTL  CLOUDY    30  13  49 SE7       30.56S WCI  23
SPIRIT OF STL  CLOUDY    29  17  61 SE8       30.55F WCI  21
ST CHARLES     CLOUDY    29  18  63 SE6       30.56F WCI  23

$$
MOZ072>076-082>087-097>100-106>115-101700-
...SOUTH CENTRAL AND SOUTHEAST MISSOURI...

CITY           SKY/WX    TMP DP  RH WIND       PRES   REMARKS
CAPE GIRARDEAU MOSUNNY   30  22  72 CALM      30.61S
FARMINGTON     CLOUDY    25  21  85 S5        30.53F WCI  19
POPLAR BLUFF   SUNNY     31  25  78 SE6       30.60R WCI  25
WEST PLAINS    CLOUDY    28  19  69 SE8       30.50F WCI  20

$$



USA.gov is the U.S. government's official web portal to all federal, state and local government web resources and services.